Wind_Speed
16 15 15 14 14 13 12 12 13 12 12 11 11 11 10 9 8 8 7 7 7 8 9 10 9 9 8 7 6 6 6 6 5 5 5 4 3 2 2 2 2 2 2
17 17 17 16 15 15 14 14 14 13 13 12 12 11 11 10 9 8 8 7 8 9 10 10 9 9 9 8 8 7 7 6 7 6 6 5 4 4 4 3 3 3 3
18 18 18 17 17 17 16 16 16 15 14 13 13 12 12 11 11 10 10 8 8 9 10 11 10 10 9 8 8 8 8 8 8 7 7 6 5 5 5 5 4 4 4
19 19 19 18 18 18 18 17 17 16 16 15 15 14 13 12 11 11 11 10 10 10 11 11 11 11 10 9 9 8 8 8 8 8 7 7 6 5 6 6 6 5 5
20 20 20 19 19 19 19 19 18 18 17 17 16 16 15 14 13 12 12 12 12 12 12 13 12 12 11 10 9 9 8 8 8 8 9 8 7 7 7 7 7 7 7
21 21 21 21 21 20 20 20 19 19 19 19 18 18 17 16 15 14 14 14 13 14 14 14 14 13 13 12 11 10 10 10 10 9 10 10 9 9 9 8 8 8 8
23 22 22 22 22 22 22 21 21 21 21 20 20 19 19 19 18 17 16 16 15 15 15 15 15 15 15 14 14 13 12 11 11 11 11 11 11 10 10 9 9 9 9
24 24 24 24 24 24 23 23 23 22 22 22 22 22 21 21 20 20 19 18 18 17 17 17 17 17 17 17 16 15 14 14 13 13 13 12 12 12 11 11 11 11 11
25 25 25 25 25 25 25 25 25 25 24 24 24 24 23 23 23 22 22 21 21 20 19 18 18 18 18 18 17 16 16 16 15 15 14 14 14 14 13 13 13 13 13
26 26 26 27 27 27 27 27 26 26 26 26 25 25 25 24 24 24 24 24 23 22 21 21 20 20 20 20 19 18 17 17 16 16 15 15 15 15 15 15 14 15 15
27 27 28 28 28 28 29 29 28 28 28 27 27 27 26 26 25 25 25 25 25 25 24 23 22 21 21 21 21 20 20 19 18 18 17 17 17 17 17 16 16 16 16
28 28 28 29 29 30 30 30 30 30 29 29 29 29 28 28 27 26 26 26 26 26 26 25 24 23 23 23 23 23 23 22 22 20 19 18 18 18 18 18 17 17 17
29 29 29 30 30 31 31 32 32 32 32 31 31 31 30 30 29 28 28 27 27 28 27 27 27 26 25 25 25 24 24 23 23 22 21 21 20 19 20 20 19 19 19
30 30 30 31 32 32 32 32 33 33 33 33 32 32 32 31 31 30 29 29 29 29 29 29 29 29 28 27 27 27 26 25 25 24 24 23 22 21 21 21 21 21 21
31 31 32 32 32 32 33 33 34 35 34 35 34 34 33 33 33 32 32 31 31 30 30 31 31 31 31 30 29 29 28 27 27 27 26 25 25 24 24 23 23 23 23
32 32 32 33 33 33 33 35 35 36 36 36 36 35 35 35 35 34 34 34 33 32 32 31 32 32 32 32 31 30 30 29 28 28 28 27 27 26 26 26 25 24 25
33 33 33 33 34 34 35 34 35 36 37 37 36 36 36 36 35 36 35 35 35 35 35 34 34 34 33 33 33 32 31 32 31 30 30 30 29 29 28 28 28 27 27
33 34 34 35 34 35 36 36 35 35 36 36 36 37 37 37 37 37 37 36 36 36 36 36 36 36 35 34 33 33 33 33 33 32 32 31 31 30 30 30 29 29 29
34 35 35 35 36 36 36 37 37 37 37 36 37 37 38 38 38 38 37 37 37 37 37 37 37 37 37 36 36 35 35 34 34 35 34 34 33 32 32 31 31 31 31
36 36 36 36 36 36 37 37 38 38 38 38 38 37 38 38 38 39 38 37 38 38 38 38 38 38 38 38 37 37 36 36 36 36 36 36 36 35 35 34 33 33 33
37 37 37 37 37 37 37 38 38 39 39 39 38 38 37 38 39 38 38 37 37 38 39 39 40 40 39 39 40 40 39 38 38 38 38 38 37 37 37 37 36 35 34
38 38 38 38 39 38 38 39 39 40 39 39 38 39 39 39 38 38 38 38 38 38 39 40 41 41 41 41 40 40 40 40 39 40 39 39 39 39 38 38 37 37 36
38 38 38 38 40 40 39 39 40 40 39 39 39 39 40 41 41 40 39 39 40 41 41 41 42 42 42 42 42 41 41 41 42 41 41 41 40 40 39 39 39 38 38
38 38 38 38 39 40 40 41 41 41 41 41 40 40 41 42 41 41 41 41 42 42 42 42 42 42 42 42 43 44 44 43 44 42 42 41 41 41 41 41 40 39 39
38 39 39 38 39 40 40 41 42 42 42 42 42 42 43 42 43 43 43 43 43 44 44 44 44 44 44 44 44 45 45 45 45 45 44 44 44 43 42 42 42 42 41
39 39 39 39 39 39 40 41 41 42 43 43 43 44 44 44 45 45 45 44 45 45 46 45 45 45 45 45 45 45 45 45 46 47 46 46 46 45 44 43 43 43 43
Wind_Direction
235 235 233 234 234 234 234 233 231 231 232 234 232 230 231 234 233 232 228 224 216 208 201 195 192 195 198 199 203 204 202 205 206 200 199 202 209 217 225 216 215 214 220
238 237 237 235 235 234 234 234 234 234 233 235 234 233 233 234 234 233 233 219 214 206 199 196 199 200 200 203 209 214 214 215 217 215 215 216 224 229 235 230 226 231 235
238 237 239 238 237 236 235 235 233 232 232 234 235 233 233 233 234 232 232 221 218 209 203 204 206 208 207 209 214 217 219 220 221 223 225 226 229 228 229 232 235 236 239
239 237 238 238 239 239 238 236 235 234 233 234 234 232 231 232 234 235 234 226 221 217 213 213 213 212 213 214 216 218 220 223 227 227 229 231 232 234 234 237 242 244 244
239 237 238 238 240 240 240 238 237 236 235 236 236 234 233 232 234 236 237 236 228 221 222 219 219 218 219 220 223 226 227 229 232 233 234 236 239 241 242 246 247 250 252
240 239 240 240 241 241 241 241 240 240 239 240 240 239 237 236 235 236 238 238 234 229 227 225 224 224 225 226 228 231 231 234 237 239 240 240 243 246 249 252 253 255 256
241 241 241 241 242 241 242 242 242 243 242 243 242 242 241 240 238 236 236 236 236 234 231 229 229 230 230 231 234 235 235 235 237 239 241 243 247 250 252 254 255 258 257
243 243 243 242 242 243 243 243 243 244 244 244 244 243 242 242 241 240 238 236 236 237 236 233 232 232 234 235 236 237 238 242 244 242 243 246 249 252 253 255 256 258 258
243 243 243 243 243 243 244 244 244 246 245 245 244 243 243 242 242 241 240 238 238 239 239 237 235 234 236 237 238 239 241 244 246 245 245 248 249 251 254 256 256 258 259
244 244 244 244 244 243 244 245 246 247 246 246 245 244 243 243 243 242 242 239 239 240 241 240 238 238 239 238 239 239 241 244 244 247 248 249 250 252 254 256 257 258 260
245 246 246 245 245 245 245 245 247 247 246 246 246 246 245 245 244 243 243 242 240 240 241 241 240 239 239 239 239 240 242 244 246 248 250 251 252 254 255 256 257 258 261
245 246 246 247 247 249 248 247 247 247 246 246 247 247 247 246 245 245 245 244 243 242 242 242 242 240 240 240 240 241 243 246 248 247 249 252 254 255 255 256 258 260 262
245 245 246 248 249 250 249 249 248 248 248 247 246 247 247 246 245 245 245 245 245 245 243 243 243 243 242 242 242 243 245 246 248 248 250 251 253 255 256 257 259 261 262
246 246 247 247 249 250 249 249 249 249 250 249 247 247 246 246 245 245 245 246 246 246 245 244 244 244 244 243 244 245 246 247 248 250 252 252 252 255 257 259 260 261 261
247 247 248 248 249 250 249 249 250 249 249 249 249 248 247 247 246 245 245 246 246 245 245 246 246 245 244 245 245 246 247 248 250 250 252 253 255 256 257 259 261 262 262
247 247 248 249 250 250 250 250 250 250 249 250 250 249 248 248 248 247 246 246 247 247 245 246 246 245 245 245 245 246 247 249 250 251 252 254 256 257 258 259 260 262 263
249 248 249 249 250 250 250 250 250 249 249 250 249 249 247 247 248 248 247 247 247 247 247 247 247 247 247 247 246 247 248 250 251 252 253 255 257 257 258 259 260 262 263
250 250 249 249 251 251 250 249 249 250 250 249 249 249 248 248 249 249 248 247 248 248 248 248 248 248 248 248 248 248 249 250 251 252 253 255 257 258 258 259 260 260 262
252 251 251 251 251 252 252 252 251 250 250 249 250 250 249 249 249 249 249 249 248 248 248 248 247 248 248 249 249 250 250 251 251 252 254 255 257 258 259 259 259 260 262
253 252 252 252 251 252 252 253 253 253 252 251 251 250 250 250 250 249 249 249 248 248 248 249 249 249 249 250 251 251 251 252 253 254 254 255 256 257 258 259 260 262 264
252 252 252 252 252 252 253 253 253 254 253 253 251 251 251 249 249 249 248 247 247 248 249 249 250 249 249 250 252 252 252 253 253 255 255 256 257 258 258 259 261 263 264
252 252 253 253 253 253 254 254 254 253 252 251 251 251 251 250 250 249 249 248 248 248 249 250 250 250 250 250 251 252 253 254 254 255 256 256 257 257 258 259 260 262 263
253 252 253 254 254 254 254 254 253 252 251 252 252 252 252 251 251 250 250 250 249 249 249 250 250 249 250 250 251 251 253 255 255 255 256 256 257 257 258 258 260 262 262
254 253 253 254 254 255 254 254 252 251 252 253 254 254 253 251 251 252 252 252 251 251 250 249 249 249 250 251 251 252 254 255 255 256 256 256 257 257 258 259 260 261 262
255 254 253 254 255 255 254 253 252 252 253 255 255 254 254 252 252 252 252 254 253 252 252 251 250 252 252 253 254 254 255 256 256 257 257 257 258 259 259 260 261 262 263
255 255 254 254 255 255 254 254 254 254 254 255 255 254 254 253 252 252 252 254 254 254 253 252 252 253 253 254 255 256 256 256 257 257 257 258 258 259 260 261 261 262 263
Height
5843 5844 5845 5846 5847 5848 5849 5849 5850 5850 5851 5851 5851 5852 5852 5852 5852 5852 5852 5850 5849 5849 5850 5852 5854 5856 5857 5858 5858 5859 5859 5860 5860 5861 5861 5861 5862 5862 5862 5862 5862 5862 5862
5841 5842 5842 5843 5844 5845 5846 5847 5848 5848 5849 5849 5850 5850 5850 5851 5850 5850 5850 5849 5848 5848 5849 5851 5853 5854 5856 5857 5857 5858 5859 5859 5860 5860 5861 5861 5861 5861 5861 5862 5862 5862 5862
5837 5838 5839 5840 5841 5842 5843 5844 5845 5846 5846 5847 5847 5848 5848 5849 5849 5848 5848 5848 5847 5847 5848 5850 5852 5853 5854 5855 5856 5857 5857 5858 5859 5859 5860 5860 5860 5860 5861 5861 5861 5861 5861
5834 5835 5836 5837 5838 5839 5840 5841 5842 5843 5844 5844 5845 5845 5846 5847 5847 5846 5846 5847 5847 5847 5848 5849 5851 5852 5853 5854 5855 5856 5856 5857 5858 5858 5859 5859 5859 5859 5860 5860 5860 5860 5860
5830 5831 5832 5833 5834 5836 5837 5838 5839 5840 5841 5841 5842 5842 5843 5844 5844 5845 5845 5845 5846 5846 5847 5848 5849 5850 5851 5852 5853 5854 5855 5855 5856 5857 5857 5858 5858 5858 5858 5859 5859 5859 5859
5826 5827 5828 5829 5831 5832 5833 5834 5835 5836 5837 5838 5839 5839 5840 5841 5842 5842 5843 5843 5844 5845 5845 5846 5847 5848 5849 5850 5851 5852 5853 5853 5854 5855 5855 5856 5856 5857 5857 5857 5857 5858 5858
5821 5822 5824 5825 5826 5827 5829 5830 5831 5832 5833 5834 5835 5836 5837 5838 5839 5839 5840 5841 5841 5842 5843 5844 5844 5846 5847 5848 5849 5850 5851 5851 5852 5853 5853 5854 5854 5854 5855 5855 5856 5856 5856
5816 5817 5819 5820 5822 5823 5824 5826 5827 5828 5829 5830 5831 5832 5833 5834 5835 5836 5837 5837 5838 5839 5840 5841 5842 5843 5844 5845 5846 5847 5848 5849 5849 5850 5851 5851 5852 5852 5853 5853 5853 5854 5854
5811 5812 5814 5815 5816 5818 5819 5820 5822 5823 5824 5825 5826 5827 5828 5829 5830 5831 5833 5834 5835 5836 5836 5837 5838 5840 5841 5842 5843 5844 5845 5846 5847 5847 5848 5848 5849 5850 5850 5850 5850 5851 5851
5805 5807 5808 5809 5811 5812 5814 5815 5816 5817 5818 5820 5821 5822 5823 5824 5825 5826 5828 5829 5830 5832 5833 5833 5834 5836 5837 5838 5839 5840 5841 5842 5843 5844 5845 5845 5846 5847 5847 5847 5848 5848 5848
5799 5801 5802 5804 5805 5806 5807 5809 5810 5811 5812 5814 5815 5817 5818 5819 5820 5821 5822 5824 5825 5827 5828 5829 5830 5831 5832 5834 5835 5836 5837 5839 5840 5841 5841 5842 5843 5843 5844 5844 5845 5845 5845
5793 5795 5796 5797 5799 5800 5801 5802 5803 5804 5806 5807 5809 5810 5812 5813 5814 5815 5817 5818 5820 5821 5823 5824 5825 5826 5828 5829 5830 5832 5833 5834 5836 5836 5837 5838 5839 5839 5840 5840 5841 5841 5841
5786 5788 5789 5791 5792 5793 5794 5795 5797 5798 5799 5801 5802 5804 5805 5807 5808 5810 5811 5812 5814 5815 5817 5819 5820 5821 5822 5824 5825 5827 5828 5829 5831 5832 5832 5834 5835 5835 5836 5836 5837 5837 5837
5779 5781 5782 5783 5785 5786 5787 5788 5789 5791 5792 5794 5795 5797 5799 5800 5801 5803 5805 5806 5807 5809 5811 5812 5814 5815 5817 5818 5820 5821 5823 5824 5825 5826 5827 5828 5830 5830 5831 5832 5832 5832 5833
5772 5774 5775 5776 5777 5778 5779 5781 5782 5783 5785 5786 5787 5790 5791 5793 5794 5796 5797 5799 5801 5802 5804 5806 5807 5809 5811 5812 5814 5815 5817 5818 5819 5821 5822 5823 5824 5825 5826 5826 5827 5827 5828
5764 5766 5767 5768 5770 5770 5772 5773 5774 5775 5776 5777 5779 5781 5783 5785 5787 5788 5790 5792 5793 5795 5797 5798 5800 5802 5804 5805 5807 5809 5810 5812 5813 5814 5816 5817 5818 5819 5820 5820 5821 5821 5822
5756 5758 5759 5760 5761 5763 5763 5764 5765 5766 5768 5769 5771 5772 5774 5776 5778 5780 5782 5784 5785 5787 5789 5791 5793 5795 5796 5798 5800 5801 5803 5805 5806 5808 5809 5810 5811 5812 5813 5814 5814 5815 5815
5748 5749 5751 5752 5753 5754 5755 5755 5756 5758 5759 5760 5762 5764 5765 5767 5769 5771 5773 5775 5777 5779 5781 5783 5785 5787 5788 5790 5792 5794 5796 5797 5799 5801 5802 5803 5804 5806 5806 5807 5808 5808 5809
5740 5741 5742 5743 5744 5745 5746 5747 5747 5748 5750 5751 5753 5755 5757 5758 5760 5762 5765 5766 5768 5770 5772 5774 5776 5778 5780 5782 5784 5786 5788 5789 5791 5793 5795 5796 5797 5798 5799 5800 5801 5801 5802
5731 5732 5733 5734 5735 5736 5737 5738 5738 5739 5741 5742 5744 5746 5747 5749 5751 5753 5755 5757 5759 5761 5763 5765 5767 5769 5771 5773 5775 5777 5779 5781 5783 5785 5786 5788 5789 5790 5791 5792 5793 5794 5794
5721 5723 5724 5725 5725 5726 5728 5729 5730 5731 5732 5733 5735 5736 5738 5740 5742 5744 5746 5748 5750 5752 5754 5756 5758 5760 5762 5764 5766 5769 5771 5773 5774 5776 5778 5779 5781 5782 5783 5784 5785 5786 5787
5712 5713 5714 5716 5716 5717 5718 5720 5721 5722 5723 5724 5725 5727 5729 5731 5732 5734 5736 5739 5741 5743 5745 5746 5748 5750 5753 5755 5757 5759 5761 5764 5765 5767 5769 5770 5772 5773 5774 5775 5776 5778 5778
5702 5703 5705 5706 5707 5708 5709 5710 5711 5712 5713 5715 5716 5717 5720 5721 5723 5725 5727 5729 5731 5733 5735 5737 5739 5741 5743 5745 5747 5749 5751 5754 5756 5758 5759 5761 5762 5764 5765 5766 5767 5768 5769
5693 5694 5695 5696 5697 5698 5699 5700 5701 5703 5704 5706 5707 5708 5710 5711 5713 5715 5717 5719 5721 5723 5725 5727 5729 5730 5732 5734 5736 5738 5741 5743 5745 5748 5749 5751 5752 5754 5755 5757 5758 5759 5759
5683 5684 5685 5686 5687 5688 5689 5690 5691 5693 5695 5696 5697 5698 5700 5701 5703 5705 5707 5709 5711 5713 5715 5717 5718 5720 5722 5724 5725 5727 5729 5731 5733 5736 5738 5740 5742 5743 5745 5746 5747 5748 5749
5672 5673 5675 5676 5676 5677 5678 5680 5681 5683 5684 5685 5687 5688 5689 5691 5692 5694 5696 5698 5700 5702 5704 5706 5707 5709 5711 5713 5714 5716 5718 5719 5722 5724 5727 5728 5730 5732 5733 5735 5736 5738 5738